Location: Goll?ig?dem
(16.6773°N, 80.7332°E)
Time: 16:30:02
(UTC+00:00)

Cosmos 2026 Rocket - Pass Details

Date: 19 May 2025
Orbit: 938 x 1000 km, 82.9° (Epoch: 12 June)

Event Time Altitude Azimuth Distance (km) Brightness Sun altitude
Rises 23:32:26 0° 194° (SSW) 3,676 6.6 -8.0°
Reaches altitude 10° 23:35:00 10° 199° (SSW) 2,737 6.0 -7.5°
Maximum altitude 23:41:06 53° 275° (W) 1,198 4.2 -6.1°
Drops below altitude 10° 23:47:17 10° 352° (N) 2,764 6.6 -4.7°
Sets 23:49:54 0° 356° (N) 3,716 7.3 -4.2°
